Weather History for KITH - February, 2012

Change the Weather History Date:

Tuesday, February 21, 2012

  Actual Average Record
Temperature  
Mean Temperature 28 °F -  
Max Temperature 37 °F 34 °F 60 °F (1997)
Min Temperature 18 °F 19 °F -7 °F (1958)
Degree Days  
Heating Degree Days 38    
Moisture  
Dew Point 20 °F    
Average Humidity 67    
Maximum Humidity 89    
Minimum Humidity 41    
Precipitation  
Precipitation 0.00 in - - ()
Sea Level Pressure  
Sea Level Pressure 30.01 in    
Wind  
Wind Speed 10 mph (SSE)    
Max Wind Speed 20 mph    
Max Gust Speed 25 mph    
Visibility 9 miles    
Events Snow    
Averages and records for this station are not official NWS values.
T = Trace of Precipitation, MM = Missing Value Source: NWS Daily Summary

Daily Weather History Graph

Daily Weather History Graph

Search for Another Location

Airport or City:

Trip Planner

Search our weather history database for the weather conditions in past years. The results will help you decide how hot, cold, wet, or windy it might be!

Date:

Astronomy

Feb. 21, 2012 Rise Set
Actual Time 6:54 AM EST 5:45 PM EST
Civil Twilight 6:26 AM EST 6:13 PM EST
Nautical Twilight 5:53 AM EST 6:46 PM EST
Astronomical Twilight 5:20 AM EST 7:18 PM EST
Moon 6:21 AM EST (2/21) 5:50 PM EST (2/21)
Length of Visible Light 11h 47m
Length of Day
10h 50m
Waning Crescent, 0% of the Moon is Illuminated
Feb 21
Waning Crescent
Feb 21
New
Feb 29
First Quarter
Mar 8
Full
Mar 14
Last Quarter

Hourly Weather History & Observations

Time (EST) Temp. Windchill Dew Point Humidity Pressure Visibility Wind Dir Wind Speed Gust Speed Precip Events Conditions
12:56 AM 18.1 °F 8.9 °F 15.1 °F 88% 30.36 in 10.0 mi ENE 6.9 mph - N/A   Clear
1:56 AM 18.1 °F 10.0 °F 14.0 °F 84% 30.34 in 10.0 mi East 5.8 mph - N/A   Clear
2:56 AM 18.1 °F 10.0 °F 14.0 °F 84% 30.31 in 10.0 mi East 5.8 mph - N/A   Clear
3:56 AM 19.0 °F 10.0 °F 14.0 °F 81% 30.27 in 10.0 mi East 6.9 mph - N/A   Clear
4:56 AM 21.0 °F 14.6 °F 14.0 °F 74% 30.25 in 10.0 mi East 4.6 mph - N/A   Clear
5:56 AM 24.1 °F 14.4 °F 14.0 °F 65% 30.23 in 10.0 mi SE 9.2 mph - N/A   Clear
6:15 AM 24.8 °F 14.0 °F 14.0 °F 64% 30.17 in 10.0 mi SE 11.5 mph - N/A   Clear
6:56 AM 25.2 °F 15.7 °F 13.1 °F 60% 30.22 in 10.0 mi SE 9.2 mph - N/A   Clear
7:56 AM 26.1 °F 15.0 °F 14.0 °F 60% 30.20 in 10.0 mi SSE 12.7 mph - N/A   Clear
10:56 AM 34.9 °F 23.9 °F 16.2 °F 46% 30.09 in 10.0 mi South 19.6 mph 25.3 mph N/A   Mostly Cloudy
11:56 AM 36.0 °F 26.0 °F 16.2 °F 45% 30.05 in 10.0 mi South 17.3 mph 25.3 mph N/A   Mostly Cloudy
12:56 PM 36.9 °F 27.8 °F 15.1 °F 41% 29.99 in 10.0 mi South 15.0 mph - N/A   Mostly Cloudy
1:56 PM 36.9 °F 28.2 °F 17.1 °F 45% 29.95 in 10.0 mi SSE 13.8 mph - N/A   Mostly Cloudy
3:56 PM 37.9 °F 29.6 °F 18.1 °F 45% 29.87 in 10.0 mi South 13.8 mph - N/A   Overcast
4:56 PM 36.0 °F 25.6 °F 24.1 °F 62% 29.87 in 4.0 mi South 18.4 mph 21.9 mph 0.00 in Snow Light Snow
5:10 PM 35.6 °F 26.2 °F 26.6 °F 70% 29.83 in 2.0 mi South 15.0 mph 19.6 mph 0.00 in   Overcast
5:18 PM 33.8 °F 24.8 °F 28.4 °F 81% 29.83 in 1.5 mi South 12.7 mph 21.9 mph 0.00 in Snow Light Snow
5:31 PM 33.8 °F 24.8 °F 28.4 °F 81% 29.83 in 5.0 mi SSE 12.7 mph - 0.00 in Snow Light Snow
5:56 PM 32.0 °F 21.6 °F 29.1 °F 89% 29.86 in 10.0 mi SSE 15.0 mph 19.6 mph 0.00 in Snow Light Snow Showers
6:18 PM 33.8 °F 27.0 °F 28.4 °F 81% 29.81 in 10.0 mi SSE 8.1 mph - 0.00 in   Overcast
6:56 PM 34.0 °F 26.6 °F 28.0 °F 79% 29.85 in 10.0 mi South 9.2 mph - 0.00 in   Overcast
7:56 PM 34.9 °F 25.7 °F 26.1 °F 70% 29.83 in 10.0 mi South 13.8 mph - N/A   Mostly Cloudy
8:56 PM 36.9 °F 29.1 °F 24.1 °F 60% 29.82 in 10.0 mi South 11.5 mph - N/A   Overcast
9:56 PM 36.9 °F 28.2 °F 24.1 °F 60% 29.80 in 10.0 mi South 13.8 mph - N/A   Overcast
10:56 PM 36.9 °F 29.1 °F 25.2 °F 63% 29.78 in 10.0 mi South 11.5 mph - 0.00 in   Overcast
11:56 PM 36.9 °F 28.7 °F 26.1 °F 65% 29.75 in 10.0 mi South 12.7 mph - N/A   Overcast